Regional Weather Roundup
Issued by NWS New Orleans/Baton Rouge, LA

Home | Current Version | Previous Version | Text Only | Print | Product List | Glossary On
Versions: 1 2 3 4 5 6 7 8 9 10 11 12 13 14 15 16 17 18 19 20 21 22 23 24 25 26 27 28 29 30 31 32 33 34 35 36 37 38 39 40 41 42 43 44 45 46 47 48 49 50
125
ASUS44 KLIX 011010
RWRLIX
NEW ORLEANS REGIONAL WEATHER ROUNDUP
NATIONAL WEATHER SERVICE NEW ORLEANS LA
500 AM CDT FRI AUG 01 2014

NOTE: "FAIR" INDICATES FEW OR NO CLOUDS BELOW 12,000 FEET WITH NO
      SIGNIFICANT WEATHER AND/OR OBSTRUCTIONS TO VISIBILITY.
      SKY/WX - SKY CONDITION AND SIGNIFICANT WEATHER.
      TMP - AIR TEMPERATURE.     DP    - DEWPOINT TEMPERATURE.
      RH  - RELATIVE HUMIDITY.   PRES  - PRESSURE.
      HI  - HEAT INDEX.          WCI   - WIND CHILL INDEX.

*  THESE STATIONS ARE NOT NWS OR FAA STATIONS AND ARE NOT UNDER
   NWS QUALITY CONTROL.

LAZ038-040-048-061>063-065>067-069-011100-
SOUTHEAST LOUISIANA

CITY           SKY/WX    TMP DP  RH WIND       PRES   REMARKS
N.O. AUDUBON     N/A     80  70  72 MISG        N/A
N.O. INTL ARPT CLOUDY    77  70  79 SE5       29.97S
N.O. LAKEFRONT MOCLDY    80  69  69 SE6       29.98S
N.O. DOWNTOWN* CLOUDY    81  66  61 CALM      29.98R
SLIDELL        MOCLDY    72  68  87 CALM      29.98R
BATON ROUGE    MOCLDY    73  68  84 NE5       29.97S
BOOTHVILLE     MOCLDY    79  68  69 CALM      29.97S
BELLE CHASSE   MOCLDY    75  70  84 CALM      29.97R
BOGALUSA*      PTSUNNY   73  68  85 CALM      30.00S
GALLIANO*      NOT AVBL
NEW ROADS*     PTSUNNY   73  67  79 CALM      29.97R
GONZALES*      PTSUNNY   73  73  99 CALM      29.96S
HAMMOND*       CLOUDY    73  66  78 CALM      30.00R
HOUMA*         CLOUDY    75  70  83 CALM      29.97R
PORT FOURCHON* SUNNY     81  66  61 CALM      29.98R

$$

MSZ070-080>082-011100-
SOUTHERN MISSISSIPPI

CITY           SKY/WX    TMP DP  RH WIND       PRES   REMARKS
MCCOMB         LGT RAIN  72  66  81 CALM      30.00R
GULFPORT       CLOUDY    77  66  68 NE3       29.97S
BILOXI         CLOUDY    74  67  79 NE6       29.97S
PASCAGOULA     CLOUDY    70  68  93 CALM      29.98R

$$

COASTAL OBSERVATIONS
LAKE AND NEARSHORE STATIONS

STATION/POSITION TIME  TEMP    WIND        PRES    WAVE
                       AIR SEA DIR/SP/G            HT/PER
                 (UTC) (F)     (DEG/KT/KT) (MB)    (FT/S)
PASCAGOULA       1000   75      20/  4/  5 1014.3
WAVELAND YACHT   1000   76      70/  8/  9 1014.2
GRAND ISLE       1000   81 87  110/  2/  4 1015.4
SOUTHWEST PASS   1000   81 85   40/  3/  3 1015.0
NEW CANAL        1000   79 83  130/  1/  3 1015.2
SHELL BEACH      1000   80 82   CALM  /  1 1014.9

OFFSHORE STATIONS

STATION/POSITION TIME  TEMP    WIND        PRES    WAVE
                       AIR SEA DIR/SP/G            HT/PER
                 (UTC) (F)     (DEG/KT/KT) (MB)    (FT/S)
64 S DAUPHIN ISL 0909   81 84   10/  4/  4 1014.7

$$




USA.gov is the U.S. government's official web portal to all federal, state and local government web resources and services.